STARLINK-32402, 61708

Orbit data source: Space-Track

STARLINK-32402, 61708 is a payload satellite owned by SpaceX/Seattle (US) in LEO that was launched on Wed, 30 Oct 2024 UTC via an FALCON 9 launch vehicle from the Air Force Eastern Test Range (AFETR). Payload-class satellites include a variety of spacecraft equipped with specific instruments for various scientific and technological missions. These include communications satellites like Starlink; space stations such as the ISS; scientific satellites like the Hubble; Earth observation satellites from companies like Planet Labs, Umbra, and HawkEye 360; GPS; miniature CubeSats for education and research; and military/defense satellites.

Loading next visibility...
Identifier
61708, 2024-196B
Orbit
LEO
Last TLE update
23 hours ago
Origin
Manufacturer
SpaceX/Seattle
Mission
Operational Commercial Communications
Bus & Motor
STARLINK V2M, Unknown motor
Mass
730 kg wet, ~700 kg dry
Launch date (UTC)
2024-10-30 (8 months ago)
Launch vehicle
FALCON 9
Launch site
Air Force Eastern Test Range (AFETR)
Object type
Payload
Rocket body
Debris
Shape & HBR
Box + 2 Pan, 29 m
Radar Cross Section
36.964 m², Large (>1 m²)

Expand to show TLE details & history

TLE from 23 hours ago
0 STARLINK-32402
1 61708U 24196B   25189.32608839  .00000740  00000-0  37106-4 0  9990
2 61708  53.1597 156.3692 0001212  79.2271 280.8866 15.30195507 39747
Epoch: 2025-07-08T07:49Z
TLE epoch observation values (Epoch: 2025-07-08T07:49:34.036Z)
Latitude
-0.00005°
Longitude
112.45466°
Altitude
475.971 km
Speed
7.629 km/s
True Right ascension
10h 25m 28s
True Declination
0° 00' 00"
Sunlit
Object was in daylight at epoch
Visualization orbit readout
Latitude
-49.16298°
Longitude
-12.4592°
Altitude
492.953 km
Speed
7.618 km/s
Apparent Right ascension
04h 40m 45s
Apparent Declination
-50° 52' 52"
Sunlit
Object is in daylight
Visualization observer readout
Local Sidereal Time
19:01:08
Azimuth
126.027° SE
Elevation
-63.351°
Doppler factor
1
Orbital elements
Apogee altitude
476.316 km
Perigee altitude
474.654 km
Semi-major axis
6,853.622 km
Eccentricity
0.00012
Inclination
53.1597°
RAAN
156.3692°
Arg. of periapsis
79.2271°
True anomaly
Unknown
Mean anomaly
280.8866°
Eccentric anomaly
Unknown
Mean motion
3.82528 °/min
Orbital period
94.11 mins
BSTAR
0.000037106
Loading maneuver chart data...
Loading SW <> Apogee altitude chart data...
Loading historical data...
Loading historical data...
Loading historical data...
Loading historical data...
Loading historical data...
Loading historical data...
Loading historical data...

STARLINK-32402 Visibility forecast

Observer location: undefined°, undefined°

Span
Click to sort rows by Start time (UTC) header in descending order
Start Az.
Max El. time (UTC)
Max El. Az.
Max El.
End time (UTC)
End Az.
6 mins2025-07-09 07:51:43.956Z294.642° NW2025-07-09 07:54:43.956Z220.051° SW34.331°2025-07-09 07:57:43.956Z155.417° SSE
4 mins2025-07-09 23:10:43.956Z166.266° S2025-07-09 23:12:43.956Z123.346° SE19.65°2025-07-09 23:14:43.956Z85.403° E
5 mins2025-07-10 00:47:43.956Z257.834° W2025-07-10 00:49:43.956Z302.268° NW34.087°2025-07-10 00:52:43.956Z33.832° NE
4 mins2025-07-10 05:45:43.956Z354.345° N2025-07-10 05:46:43.956Z18.068° NNE22.089°2025-07-10 05:49:43.956Z79.782° E
|